SWA2528 KSAN-KLAS

Flight info

Callsign SWA2528
Flight time 0h 52m
Altitude 29000
Route PADRZ2 CHKNN SEBBY YELAH MISEN RNDRZ4
Aircraft B738/M-SDE2E3FGHIRWXY/LB1

Departure

Time 2026-05-04 04:59
Airport San Diego International Airport (KSAN)

Arrival

Time 2026-05-04 05:52
Airport Harry Reid International Airport (KLAS)
Time Latitude Longitude Altitude Speed Heading
2026-05-04 04:41 32.73316 -117.19680 19 ft 0 kts 141°
2026-05-04 04:47 32.73327 -117.19689 19 ft 4 kts 158°
2026-05-04 04:47 32.73344 -117.19702 21 ft 4 kts 120°
2026-05-04 04:47 32.73345 -117.19714 19 ft 4 kts 25°
2026-05-04 04:48 32.73321 -117.19725 19 ft 3 kts 19°
2026-05-04 04:49 32.73318 -117.19726 19 ft 0 kts 19°
2026-05-04 04:50 32.73323 -117.19724 19 ft 4 kts 19°
2026-05-04 04:51 32.73361 -117.19708 20 ft 7 kts 20°
2026-05-04 04:51 32.73409 -117.19689 23 ft 7 kts 29°
2026-05-04 04:51 32.73414 -117.19626 24 ft 10 kts 106°
2026-05-04 04:51 32.73392 -117.19534 26 ft 12 kts 106°
2026-05-04 04:52 32.73382 -117.19492 23 ft 13 kts 106°
2026-05-04 04:52 32.73354 -117.19376 21 ft 17 kts 106°
2026-05-04 04:52 32.73339 -117.19316 20 ft 17 kts 106°
2026-05-04 04:52 32.73305 -117.19177 20 ft 17 kts 106°
2026-05-04 04:53 32.73272 -117.19042 23 ft 17 kts 106°
2026-05-04 04:53 32.73240 -117.18910 24 ft 17 kts 106°
2026-05-04 04:53 32.73207 -117.18772 23 ft 18 kts 106°
2026-05-04 04:53 32.73171 -117.18626 24 ft 20 kts 106°
2026-05-04 04:54 32.73133 -117.18466 20 ft 20 kts 105°
2026-05-04 04:54 32.73096 -117.18311 22 ft 19 kts 106°
2026-05-04 04:54 32.73059 -117.18161 17 ft 19 kts 107°
2026-05-04 04:54 32.73025 -117.18021 16 ft 16 kts 106°
2026-05-04 04:55 32.72996 -117.17901 16 ft 15 kts 106°
2026-05-04 04:55 32.72970 -117.17793 15 ft 13 kts 106°
2026-05-04 04:55 32.72951 -117.17717 15 ft 7 kts 107°
2026-05-04 04:55 32.72952 -117.17673 16 ft 1 kts 73°
2026-05-04 04:56 32.72953 -117.17670 16 ft 0 kts 73°
2026-05-04 04:56 32.72956 -117.17661 17 ft 6 kts 73°
2026-05-04 04:56 32.73017 -117.17591 20 ft 12 kts 322°
2026-05-04 04:57 32.73036 -117.17643 18 ft 0 kts 286°
2026-05-04 04:57 32.73036 -117.17644 18 ft 0 kts 286°
2026-05-04 04:57 32.73037 -117.17647 18 ft 0 kts 286°
2026-05-04 04:59 32.73042 -117.17667 17 ft 12 kts 286°
2026-05-04 04:59 32.73145 -117.18096 17 ft 96 kts 286°
2026-05-04 04:59 32.73396 -117.19134 39 ft 165 kts 285°
2026-05-04 04:59 32.73725 -117.20531 727 ft 179 kts 284°
2026-05-04 05:00 32.74142 -117.21903 1862 ft 174 kts 301°
2026-05-04 05:00 32.74905 -117.23130 2424 ft 200 kts 306°
2026-05-04 05:00 32.76678 -117.26113 3089 ft 237 kts 302°
2026-05-04 05:01 32.77647 -117.27813 3461 ft 255 kts 302°
2026-05-04 05:01 32.78657 -117.29583 4235 ft 261 kts 302°
2026-05-04 05:01 32.79677 -117.31373 5179 ft 263 kts 302°
2026-05-04 05:01 32.80758 -117.33150 5885 ft 270 kts 305°
2026-05-04 05:02 32.81917 -117.34939 6689 ft 274 kts 306°
2026-05-04 05:02 32.83090 -117.36734 7493 ft 277 kts 305°
2026-05-04 05:02 32.84271 -117.38546 7880 ft 279 kts 305°
2026-05-04 05:02 32.85458 -117.40375 7967 ft 278 kts 305°
2026-05-04 05:03 32.86636 -117.42193 7973 ft 278 kts 305°
2026-05-04 05:03 32.87824 -117.44035 8161 ft 284 kts 305°
2026-05-04 05:04 32.91463 -117.49688 10501 ft 296 kts 304°
2026-05-04 05:04 32.92762 -117.51717 10696 ft 321 kts 303°
2026-05-04 05:04 32.94062 -117.53747 10960 ft 339 kts 303°
2026-05-04 05:06 33.04241 -117.69625 15861 ft 357 kts 301°
2026-05-04 05:06 33.05744 -117.71978 16573 ft 357 kts 301°
2026-05-04 05:06 33.07410 -117.74216 17215 ft 367 kts 310°
2026-05-04 05:07 33.09369 -117.76195 17852 ft 371 kts 313°
2026-05-04 05:07 33.11381 -117.78146 18471 ft 374 kts 313°
2026-05-04 05:07 33.13397 -117.80123 19007 ft 377 kts 312°
2026-05-04 05:09 33.30003 -117.96558 23047 ft 397 kts 312°
2026-05-04 05:09 33.32151 -117.98652 23512 ft 399 kts 311°
2026-05-04 05:10 33.34187 -118.00640 23911 ft 401 kts 312°
2026-05-04 05:10 33.36358 -118.02764 24293 ft 404 kts 311°
2026-05-04 05:10 33.38536 -118.04897 24718 ft 406 kts 311°
2026-05-04 05:10 33.40725 -118.07042 25176 ft 407 kts 311°
2026-05-04 05:11 33.42918 -118.09191 25608 ft 407 kts 311°
2026-05-04 05:11 33.45115 -118.11347 25969 ft 410 kts 311°
2026-05-04 05:11 33.47316 -118.13508 26451 ft 408 kts 311°
2026-05-04 05:11 33.49499 -118.15648 27083 ft 402 kts 310°
2026-05-04 05:12 33.51661 -118.17772 27600 ft 401 kts 310°
2026-05-04 05:12 33.53805 -118.19882 28082 ft 399 kts 310°
2026-05-04 05:12 33.55947 -118.21990 28583 ft 397 kts 310°
2026-05-04 05:12 33.58145 -118.23999 29021 ft 405 kts 317°
2026-05-04 05:13 33.63191 -118.26769 29048 ft 415 kts 324°
2026-05-04 05:13 33.68352 -118.29555 29045 ft 416 kts 324°
2026-05-04 05:14 33.71173 -118.30609 29043 ft 442 kts 341°
2026-05-04 05:14 33.74290 -118.30542 29055 ft 469 kts
2026-05-04 05:14 33.77444 -118.29230 29048 ft 491 kts 21°
2026-05-04 05:14 33.80220 -118.26662 29038 ft 507 kts 43°
2026-05-04 05:15 33.84431 -118.19774 29037 ft 514 kts 52°
2026-05-04 05:15 33.88413 -118.12675 29044 ft 515 kts 52°
2026-05-04 05:16 33.92515 -118.05592 29040 ft 515 kts 51°
2026-05-04 05:16 33.96617 -117.98674 29035 ft 515 kts 50°
2026-05-04 05:17 34.00760 -117.91686 29031 ft 513 kts 50°
2026-05-04 05:17 34.04894 -117.84678 29037 ft 512 kts 50°
2026-05-04 05:18 34.09023 -117.77680 29045 ft 511 kts 49°
2026-05-04 05:18 34.13432 -117.71018 29043 ft 508 kts 45°
2026-05-04 05:19 34.17948 -117.64531 29040 ft 508 kts 45°
2026-05-04 05:19 34.22491 -117.57967 29046 ft 509 kts 46°
2026-05-04 05:20 34.26987 -117.51391 29030 ft 506 kts 46°
2026-05-04 05:20 34.31450 -117.44829 29038 ft 505 kts 46°
2026-05-04 05:21 34.35903 -117.38261 29031 ft 505 kts 46°
2026-05-04 05:21 34.40280 -117.31796 29033 ft 506 kts 46°
2026-05-04 05:22 34.44744 -117.25196 29023 ft 507 kts 46°
2026-05-04 05:22 34.49209 -117.18581 29017 ft 506 kts 46°
2026-05-04 05:23 34.53623 -117.12030 29020 ft 506 kts 46°
2026-05-04 05:23 34.58074 -117.05411 29022 ft 505 kts 46°
2026-05-04 05:24 34.62413 -116.98948 28998 ft 504 kts 47°
2026-05-04 05:24 34.66825 -116.92360 28987 ft 504 kts 47°
2026-05-04 05:25 34.71232 -116.85772 28962 ft 503 kts 47°
2026-05-04 05:25 34.75637 -116.79174 28936 ft 501 kts 47°
2026-05-04 05:26 34.80026 -116.72585 28911 ft 501 kts 47°
2026-05-04 05:26 34.84388 -116.66042 28894 ft 493 kts 45°
2026-05-04 05:27 34.86727 -116.63059 28890 ft 479 kts 34°
2026-05-04 05:28 35.04127 -116.46343 26322 ft 458 kts 33°
2026-05-04 05:29 35.06599 -116.43928 26030 ft 452 kts 33°
2026-05-04 05:29 35.09049 -116.41540 25625 ft 450 kts 33°
2026-05-04 05:29 35.11444 -116.39071 25199 ft 451 kts 39°
2026-05-04 05:29 35.13627 -116.36336 24823 ft 450 kts 44°
2026-05-04 05:31 35.27891 -116.17194 22399 ft 429 kts 46°
2026-05-04 05:31 35.29408 -116.15088 22144 ft 426 kts 46°
2026-05-04 05:32 35.31368 -116.12388 21809 ft 423 kts 46°
2026-05-04 05:32 35.33313 -116.09716 21509 ft 418 kts 46°
2026-05-04 05:32 35.35244 -116.07067 21195 ft 414 kts 46°
2026-05-04 05:33 35.39054 -116.01834 20552 ft 408 kts 47°
2026-05-04 05:33 35.40836 -115.99383 20288 ft 404 kts 47°
2026-05-04 05:33 35.42695 -115.96824 19997 ft 399 kts 48°
2026-05-04 05:33 35.44531 -115.94294 19706 ft 395 kts 48°
2026-05-04 05:34 35.46349 -115.91784 19374 ft 392 kts 49°
2026-05-04 05:34 35.48152 -115.89294 19044 ft 388 kts 49°
2026-05-04 05:34 35.49915 -115.86856 18742 ft 385 kts 49°
2026-05-04 05:34 35.51522 -115.84634 18476 ft 381 kts 49°
2026-05-04 05:35 35.53271 -115.82215 18164 ft 378 kts 50°
2026-05-04 05:35 35.55010 -115.79808 17870 ft 374 kts 50°
2026-05-04 05:35 35.56704 -115.77461 17566 ft 371 kts 50°
2026-05-04 05:35 35.58402 -115.75109 17363 ft 364 kts 50°
2026-05-04 05:36 35.60061 -115.72823 17245 ft 355 kts 50°
2026-05-04 05:36 35.61717 -115.70585 17002 ft 351 kts 50°
2026-05-04 05:36 35.63362 -115.68374 16669 ft 351 kts 50°
2026-05-04 05:36 35.65006 -115.66163 16344 ft 349 kts 50°
2026-05-04 05:37 35.66633 -115.63966 16031 ft 347 kts 50°
2026-05-04 05:37 35.68260 -115.61770 15717 ft 346 kts 50°
2026-05-04 05:37 35.69864 -115.59602 15478 ft 342 kts 50°
2026-05-04 05:38 35.73100 -115.55358 14830 ft 341 kts 40°
2026-05-04 05:38 35.75100 -115.53809 14535 ft 340 kts 30°
2026-05-04 05:38 35.77165 -115.52418 14234 ft 337 kts 30°
2026-05-04 05:38 35.79193 -115.51054 14020 ft 335 kts 30°
2026-05-04 05:39 35.80986 -115.49832 13859 ft 333 kts 31°
2026-05-04 05:39 35.85052 -115.47009 13507 ft 329 kts 31°
2026-05-04 05:39 35.87047 -115.45612 13328 ft 328 kts 31°
2026-05-04 05:40 35.90996 -115.42840 12968 ft 334 kts 32°
2026-05-04 05:40 35.93007 -115.41434 12573 ft 340 kts 31°
2026-05-04 05:40 35.94944 -115.40083 12209 ft 341 kts 31°
2026-05-04 05:41 35.96855 -115.38753 11846 ft 341 kts 32°
2026-05-04 05:41 35.98908 -115.37267 11445 ft 341 kts 38°
2026-05-04 05:41 36.00440 -115.35286 11050 ft 333 kts 63°
2026-05-04 05:41 36.01266 -115.32784 10830 ft 320 kts 81°
2026-05-04 05:42 36.01432 -115.30099 10603 ft 309 kts 96°
2026-05-04 05:42 36.01308 -115.27486 10386 ft 304 kts 98°
2026-05-04 05:42 36.01154 -115.24897 10168 ft 299 kts 98°
2026-05-04 05:42 36.01006 -115.22356 9953 ft 295 kts 98°
2026-05-04 05:43 36.00867 -115.19850 9743 ft 290 kts 98°
2026-05-04 05:43 36.00739 -115.17378 9536 ft 286 kts 97°
2026-05-04 05:43 36.00615 -115.14947 9336 ft 281 kts 97°
2026-05-04 05:45 35.99734 -114.97829 7925 ft 285 kts 98°
2026-05-04 05:45 35.99597 -114.95409 7959 ft 282 kts 99°
2026-05-04 05:47 36.07672 -114.88452 5773 ft 277 kts 302°
2026-05-04 05:47 36.08293 -114.90555 5498 ft 252 kts 268°
2026-05-04 05:47 36.07977 -114.92587 5212 ft 235 kts 252°
2026-05-04 05:48 36.07632 -114.94541 4911 ft 228 kts 259°
2026-05-04 05:48 36.07452 -114.96446 4610 ft 218 kts 263°
2026-05-04 05:48 36.07392 -114.98262 4331 ft 203 kts 266°
2026-05-04 05:48 36.07386 -114.99929 4077 ft 185 kts 266°
2026-05-04 05:49 36.07385 -115.01422 3844 ft 165 kts 266°
2026-05-04 05:49 36.07382 -115.02797 3630 ft 157 kts 266°
2026-05-04 05:49 36.07379 -115.04140 3432 ft 156 kts 266°
2026-05-04 05:49 36.07377 -115.05483 3207 ft 157 kts 266°
2026-05-04 05:51 36.07365 -115.14568 2090 ft 90 kts 270°
2026-05-04 05:51 36.07365 -115.15116 2097 ft 50 kts 270°
2026-05-04 05:52 36.07438 -115.15445 2105 ft 25 kts 299°
2026-05-04 05:52 36.07505 -115.15578 2107 ft 12 kts 308°
2026-05-04 05:52 36.07529 -115.15610 2111 ft 1 kts 315°
2026-05-04 05:52 36.07534 -115.15616 2109 ft 1 kts 315°
2026-05-04 05:53 36.07547 -115.15632 2111 ft 6 kts 315°
2026-05-04 05:54 36.07917 -115.15201 2097 ft 16 kts 359°
2026-05-04 05:55 36.08028 -115.15204 2097 ft 16 kts 359°
2026-05-04 05:55 36.08135 -115.15206 2096 ft 14 kts 359°
2026-05-04 05:55 36.08205 -115.15190 2096 ft 8 kts 44°
2026-05-04 05:55 36.08237 -115.15151 2096 ft 2 kts 44°
2026-05-04 05:56 36.08241 -115.15146 2096 ft 1 kts 44°
2026-05-04 05:56 36.08244 -115.15143 2096 ft 0 kts 44°